Date,TemperatureHighF,TemperatureAvgF,TemperatureLowF,DewpointHighF,DewpointAvgF,DewpointLowF,HumidityHigh,HumidityAvg,HumidityLow,PressureMaxIn,PressureMinIn,WindSpeedMaxMPH,WindSpeedAvgMPH,GustSpeedMaxMPH,PrecipitationSumIn
2012-1-1,43.3,35.9,28.0,38.0,32.1,25.0,90,86,80,29.89,29.49,14,4,0,0.10
2012-1-2,27.9,23.8,19.1,25.0,18.3,11.0,95,79,66,30.30,29.89,15,4,0,0.03
2012-1-3,25.1,20.5,17.5,16.0,11.5,9.0,76,68,58,30.39,30.14,7,2,0,0.00
2012-1-4,36.8,27.7,20.1,27.0,19.7,10.0,83,72,66,30.14,29.89,11,2,0,0.00
2012-1-5,43.6,35.1,27.5,35.0,28.4,24.0,88,77,59,30.00,29.67,10,1,0,0.00
2012-1-6,52.7,45.2,42.0,39.0,35.8,34.0,76,69,58,29.71,29.64,10,3,0,0.00
2012-1-7,42.4,37.0,27.2,35.0,28.3,21.0,83,71,61,30.22,29.69,13,2,0,0.00
2012-1-8,39.4,30.0,20.9,28.0,23.4,17.0,88,77,62,30.38,29.46,6,1,0,0.00
2012-1-9,41.5,34.0,26.2,33.0,28.4,23.0,89,80,62,30.28,29.90,17,3,0,0.00
2012-1-10,48.3,38.0,26.3,34.0,30.3,24.0,91,75,57,30.05,29.82,9,1,0,0.00
2012-1-11,51.3,42.1,30.2,34.0,31.8,27.0,88,68,49,29.82,29.50,6,0,0,0.00
2012-1-12,40.4,35.1,23.5,36.0,31.2,21.0,90,85,70,29.50,29.32,1,0,0,0.31
2012-1-13,27.6,24.7,22.0,25.0,21.9,19.0,91,88,85,29.99,29.37,2,0,0,0.15
2012-1-14,24.3,21.2,17.2,22.0,17.7,14.0,92,86,80,30.26,29.99,4,0,0,0.06
2012-1-15,25.4,19.3,14.0,18.0,13.7,10.0,87,79,69,30.44,30.23,5,1,0,0.00
2012-1-16,45.5,32.9,19.2,36.0,26.9,13.0,90,79,67,30.21,29.76,6,1,0,0.00
2012-1-17,38.0,35.1,30.8,36.0,33.1,29.0,92,92,91,29.76,29.52,7,1,0,0.17
2012-1-23,45.4,37.5,30.8,44.0,34.2,23.0,93,88,74,29.81,29.40,22,7,0,0.53
2012-1-24,31.7,30.2,29.2,26.0,23.7,23.0,80,76,74,30.36,29.81,16,5,0,0.00
2012-1-25,34.5,31.5,28.6,27.0,24.9,22.0,82,77,71,30.41,30.16,4,0,0,0.00
2012-1-26,36.0,32.5,29.4,32.0,28.7,25.0,90,86,81,30.16,29.60,4,1,0,0.00
2012-1-27,39.9,35.4,32.9,32.0,28.3,24.0,92,76,57,29.97,29.59,11,3,0,0.00
2012-1-28,34.4,30.9,28.1,30.0,24.8,20.0,91,78,67,30.06,29.70,15,5,0,0.15
2012-1-29,29.9,27.0,22.9,26.0,21.1,15.0,90,79,67,30.23,29.93,12,2,0,0.32
2012-1-30,39.2,27.5,15.8,34.0,21.4,12.0,87,78,65,30.24,29.87,5,0,0,0.00
2012-1-31,54.0,46.1,33.4,46.0,39.5,30.0,91,78,64,29.89,29.77,14,3,0,0.00
2012-2-1,49.6,39.5,36.3,44.0,33.4,31.0,85,79,73,30.16,29.81,8,2,0,0.00
2012-2-2,42.8,36.4,31.5,33.0,30.5,27.0,88,80,66,30.43,30.17,7,1,0,0.00
2012-2-3,36.3,35.4,34.1,33.0,30.5,28.0,88,82,74,30.51,30.42,5,0,0,0.00
2012-2-4,45.2,35.3,28.0,28.0,25.8,23.0,83,70,46,30.42,30.19,4,0,0,0.00
2012-2-5,41.6,32.9,21.8,29.0,25.6,19.0,89,75,61,30.31,30.18,8,1,0,0.00
2012-2-6,34.5,32.9,29.5,32.0,29.0,26.0,90,85,81,30.22,30.09,12,3,0,0.00
2012-2-7,34.7,33.1,28.4,31.0,26.6,17.0,86,77,62,30.40,30.16,6,1,0,0.00
2012-2-8,34.6,26.7,18.7,20.0,16.8,13.0,79,67,50,30.40,30.26,12,2,0,0.00
2012-2-9,36.2,29.3,23.6,23.0,19.8,17.0,79,68,49,30.26,30.07,12,3,0,0.00
2012-2-10,33.3,27.4,11.0,30.0,22.0,7.0,89,80,68,30.12,29.86,13,2,0,0.27
2012-2-11,21.0,14.5,2.5,15.0,9.7,-2.0,92,81,76,30.33,30.12,9,2,0,0.00
2012-2-12,28.9,24.4,18.6,19.0,16.2,13.0,81,71,63,30.27,30.16,16,4,0,0.00
2012-2-13,34.5,28.1,16.9,20.0,16.6,12.0,84,63,44,30.16,29.95,11,2,0,0.00
2012-2-14,33.0,30.4,27.7,30.0,26.6,20.0,89,85,66,30.02,29.85,4,1,0,0.00
2012-2-15,43.3,36.2,33.0,34.0,30.9,29.0,90,81,69,30.16,30.02,10,1,0,0.00
2012-2-16,41.2,37.2,33.2,37.0,32.6,27.0,93,84,66,30.07,29.93,11,2,0,0.09
2012-2-17,41.7,34.1,29.8,30.0,26.8,21.0,90,76,45,30.14,29.95,11,1,0,0.04
2012-2-18,35.1,30.2,23.6,29.0,22.1,16.0,91,73,54,30.27,29.94,7,1,0,0.00
2012-2-19,37.4,26.2,16.4,22.0,17.6,13.0,86,71,52,30.27,30.19,5,0,0,0.00
2012-2-20,42.3,30.5,18.2,24.0,20.4,15.0,88,68,47,30.38,30.05,5,1,0,0.00
2012-2-21,38.7,35.3,31.6,35.0,29.0,23.0,89,78,67,30.04,29.59,13,3,0,0.02
2012-2-22,43.7,37.7,33.0,33.0,28.8,24.0,88,71,54,29.64,29.42,18,5,0,0.09
2012-2-23,36.7,32.3,25.5,30.0,28.3,23.0,91,85,75,29.63,29.43,6,0,0,0.01
2012-2-24,35.8,32.0,29.5,32.0,28.4,26.0,91,86,75,29.80,29.38,13,2,0,0.36
2012-2-25,32.9,29.0,26.3,27.0,23.2,19.0,91,79,61,30.34,29.79,16,4,0,0.03
2012-2-26,39.4,31.5,20.1,27.0,21.7,15.0,83,68,55,30.39,30.03,14,2,0,0.00
2012-2-27,40.8,34.4,28.8,30.0,24.3,22.0,80,67,57,30.48,30.04,24,5,0,0.00
2012-2-28,40.6,34.4,27.0,30.0,25.4,23.0,84,71,53,30.51,30.05,11,1,0,0.00
2012-2-29,46.3,36.3,32.8,42.0,33.0,29.0,92,88,73,30.05,29.43,14,4,0,0.90
2012-3-1,39.5,35.9,32.8,35.0,32.1,30.0,92,86,77,29.88,26.56,11,2,0,0.01
2012-3-2,40.7,37.4,33.5,38.0,33.5,30.0,91,86,78,29.86,29.13,16,3,0,0.39
2012-3-3,34.4,31.4,26.5,32.0,26.9,24.0,90,83,74,29.78,29.33,19,7,0,0.03
2012-3-4,31.4,26.4,21.8,24.0,20.4,16.0,90,78,67,29.99,29.78,7,1,0,0.00
2012-3-5,30.6,24.8,18.9,19.0,14.4,9.0,80,65,53,30.39,29.99,13,2,0,0.00
2012-3-6,64.5,45.0,29.2,41.0,30.0,19.0,73,58,41,30.35,29.91,14,3,0,0.00
2012-3-7,64.5,60.0,54.7,49.0,41.1,33.0,60,50,44,30.01,29.76,18,6,0,0.00
2012-3-8,63.4,42.2,33.1,53.0,33.7,23.0,90,73,55,30.12,29.69,17,6,0,0.32
2012-3-9,36.6,29.9,22.6,26.0,17.2,11.0,85,60,46,30.57,30.09,15,5,0,0.01
2012-3-10,55.8,40.2,22.7,30.0,21.4,13.0,71,49,34,30.57,30.20,14,3,0,0.00
2012-3-11,64.1,52.6,39.3,35.0,30.1,26.0,61,44,28,30.29,30.14,10,2,0,0.00
2012-3-12,65.9,53.9,49.2,57.0,47.0,35.0,92,79,53,30.14,29.69,11,2,0,0.63
2012-3-13,58.4,50.9,42.1,47.0,38.3,29.0,90,66,36,30.11,29.82,15,3,0,0.00
2012-3-14,81.2,61.8,39.0,58.0,45.2,29.0,72,56,40,30.10,29.91,10,2,0,0.00
2012-3-15,71.9,66.5,57.8,62.0,58.8,54.0,88,76,59,30.00,29.91,11,2,0,0.00
2012-3-16,78.0,61.4,52.4,62.0,55.7,50.0,94,83,56,30.09,29.98,5,0,0,0.00
2012-3-17,79.5,68.4,57.3,59.0,55.7,52.0,88,66,44,30.12,30.00,8,1,13,0.00
2012-3-18,76.8,65.3,55.0,59.0,55.6,52.0,90,72,51,30.07,29.98,6,1,10,0.00
2012-3-19,80.4,69.3,58.4,62.0,58.5,55.0,87,70,50,30.03,29.94,6,1,13,0.00
2012-3-20,84.2,74.2,62.7,60.0,57.2,54.0,81,58,36,30.07,29.96,12,2,17,0.00
2012-3-21,86.6,73.3,60.0,60.0,56.4,54.0,81,58,39,30.12,30.01,8,1,13,0.00
2012-3-22,85.8,69.3,60.6,59.0,56.4,55.0,81,66,40,30.10,30.00,6,1,10,0.00
2012-3-23,68.2,60.9,57.0,59.0,57.2,54.0,93,87,69,30.03,29.83,7,2,10,0.87
2012-3-24,63.3,57.8,52.8,55.0,53.0,51.0,94,84,73,29.89,29.79,6,0,8,0.00
2012-3-25,71.0,58.1,49.2,54.0,47.8,35.0,91,71,40,30.13,29.89,7,1,18,0.00
2012-3-26,48.1,39.6,30.8,34.0,22.8,19.0,72,52,37,30.42,30.14,9,2,14,0.00
2012-3-27,61.8,44.1,33.2,44.0,24.5,14.0,59,47,33,30.39,29.76,9,2,22,0.00
2012-3-28,64.6,55.7,46.6,51.0,41.3,33.0,72,59,51,30.02,29.69,12,4,25,0.00
2012-3-29,47.9,40.9,33.4,33.0,29.7,26.0,79,65,55,30.17,30.02,7,1,15,0.00
2012-3-30,37.0,34.4,32.5,34.0,30.3,27.0,91,85,71,30.10,29.82,11,2,16,0.46
2012-3-31,46.3,38.5,34.5,36.0,32.6,30.0,89,80,65,30.05,29.91,5,1,11,0.00
2012-4-1,59.0,48.4,39.0,46.0,40.3,34.0,85,74,61,29.91,29.72,3,0,8,0.00
2012-4-2,59.7,49.8,38.7,40.0,36.1,33.0,83,61,45,30.04,29.84,11,2,16,0.00
2012-4-3,64.6,52.2,41.9,51.0,43.2,34.0,91,72,59,30.03,29.85,7,1,16,0.47
2012-4-4,63.3,51.2,35.4,44.0,32.7,25.0,85,53,25,29.99,29.88,8,1,10,0.00
2012-4-5,51.2,43.7,35.3,30.0,28.2,26.0,75,56,41,30.18,29.96,7,1,13,0.00
2012-4-6,60.2,44.5,29.0,31.0,27.1,24.0,84,55,29,30.34,30.19,3,0,8,0.00
2012-4-7,65.1,48.9,31.8,35.0,31.3,28.0,88,55,28,30.33,30.10,8,1,13,0.00
2012-4-8,58.6,51.9,44.7,44.0,34.9,29.0,83,55,34,30.15,30.04,18,4,24,0.00
2012-4-9,56.8,46.8,37.9,40.0,30.0,23.0,86,56,28,30.04,29.88,12,3,26,0.00
2012-4-10,41.6,38.0,35.7,29.0,25.3,23.0,72,61,51,30.09,29.93,12,3,18,0.01
2012-4-11,56.1,46.2,33.7,33.0,28.9,26.0,74,52,35,30.25,30.09,10,1,16,0.00
2012-4-12,56.9,43.0,29.6,34.0,29.7,25.0,86,62,40,30.30,30.17,7,1,13,0.00
2012-4-13,65.2,50.4,32.8,36.0,32.4,28.0,87,54,30,30.25,30.07,6,1,13,0.00
2012-4-14,64.6,58.8,52.3,55.0,47.0,33.0,83,66,44,30.06,29.84,6,1,13,0.00
2012-4-15,74.6,65.2,57.3,63.0,58.7,54.0,93,80,64,29.81,29.64,12,2,23,0.75
2012-4-16,69.6,56.0,41.0,62.0,47.4,32.0,90,73,59,30.15,29.48,31,7,39,0.47
2012-4-17,54.1,43.1,34.6,33.0,30.5,28.0,79,63,40,30.41,30.15,8,1,11,0.00
2012-4-18,67.6,52.3,33.8,45.0,38.1,29.0,86,61,43,30.34,29.93,10,1,18,0.00
2012-4-19,67.3,59.3,52.8,56.0,51.3,45.0,89,76,57,29.97,29.77,7,1,16,0.08
2012-4-20,52.3,44.1,39.8,50.0,41.3,36.0,92,89,83,29.98,29.65,11,1,16,0.35
2012-4-21,55.0,44.0,30.9,36.0,28.9,24.0,90,59,34,30.06,29.97,5,1,12,0.00
2012-4-22,55.3,43.7,32.5,30.0,27.0,24.0,80,54,34,30.08,30.02,8,1,17,0.00
2012-4-23,59.0,44.5,34.4,27.0,22.9,19.0,65,45,28,30.05,29.73,15,2,20,0.00
2012-4-24,62.7,50.6,39.3,31.0,26.3,19.0,59,40,28,29.72,29.64,16,3,19,0.00
2012-4-25,63.7,50.1,36.1,46.0,37.1,28.0,85,63,38,29.81,29.72,8,1,12,0.02
2012-4-26,55.2,49.2,38.2,47.0,38.7,21.0,86,69,44,30.15,29.64,9,1,16,0.00
2012-4-27,56.6,42.5,27.9,32.0,24.8,21.0,80,52,30,30.29,30.16,9,1,14,0.00
2012-4-28,47.9,43.2,39.3,35.0,28.8,25.0,68,57,47,30.28,30.16,7,1,16,0.00
2012-4-29,63.2,49.5,29.7,41.0,28.8,23.0,86,49,27,30.37,30.14,7,1,14,0.03
2012-4-30,54.2,48.7,42.2,51.0,44.0,36.0,91,84,62,30.17,29.89,8,1,15,0.49
2012-5-1,65.9,55.0,49.4,52.0,48.6,46.0,91,80,61,30.06,29.89,5,1,11,0.00
2012-5-2,80.2,66.9,52.9,66.0,57.1,49.0,93,73,47,29.93,29.75,16,3,29,0.01
2012-5-3,84.5,74.9,66.5,69.0,63.8,59.0,78,69,56,29.93,29.80,20,3,28,0.00
2012-5-4,78.6,68.8,58.1,67.0,62.1,52.0,92,80,64,30.02,29.86,10,1,14,0.19
2012-5-5,59.5,55.6,51.7,55.0,48.7,41.0,88,78,64,30.11,29.98,7,1,12,0.05
2012-5-6,66.3,57.5,50.0,55.0,48.2,39.0,90,72,59,30.10,29.92,8,1,13,0.39
2012-5-7,58.1,53.1,50.3,56.0,49.7,46.0,92,88,78,29.94,29.82,6,1,9,0.29
2012-5-8,67.8,53.2,46.1,55.0,47.0,44.0,94,82,47,29.85,29.81,13,1,14,0.00
2012-5-9,63.8,54.0,47.8,48.0,43.4,34.0,89,70,44,29.91,29.79,10,1,16,0.02
2012-5-10,66.5,52.6,35.9,42.0,36.8,32.0,89,58,34,30.03,29.90,8,1,15,0.00
2012-5-11,75.9,59.8,39.2,45.0,39.7,35.0,92,52,30,30.14,30.03,11,1,14,0.00
2012-5-12,63.7,60.5,57.0,56.0,50.4,42.0,87,71,50,30.20,30.09,5,1,11,0.02
2012-5-13,75.1,62.4,51.7,53.0,40.4,32.0,86,48,21,30.25,30.09,6,0,9,0.01
2012-5-14,76.3,61.0,41.9,44.0,40.1,36.0,88,51,28,30.11,29.98,8,1,11,0.00
2012-5-15,80.0,65.5,47.3,56.0,47.2,41.0,88,55,33,29.98,29.75,17,3,24,0.22
2012-5-16,66.7,56.2,44.7,56.0,39.0,33.0,90,56,33,30.13,29.88,6,1,12,0.03
2012-5-17,71.9,58.8,41.2,43.0,37.8,34.0,76,48,30,30.22,30.08,5,0,9,0.00
2012-5-18,82.3,66.3,48.5,49.0,44.4,40.0,74,48,29,30.13,30.00,7,0,12,0.00
2012-5-19,89.5,73.5,55.3,54.0,49.1,46.0,72,46,24,30.09,30.00,6,1,11,0.00
2012-5-20,91.7,77.5,62.9,64.0,57.9,51.0,83,53,36,30.07,29.88,9,1,15,0.11
2012-5-21,68.6,60.9,54.9,62.0,52.3,42.0,91,75,48,30.08,29.95,6,1,18,0.41
2012-5-22,74.3,58.3,45.0,50.0,44.3,40.0,85,62,37,30.08,29.91,5,1,9,0.00
2012-5-23,81.4,66.3,47.2,53.0,49.5,44.0,91,59,34,29.94,29.78,6,0,11,0.00
2012-5-24,88.5,75.6,60.9,61.0,56.9,52.0,83,55,35,29.84,29.61,8,2,16,0.00
2012-5-25,79.0,73.8,66.6,61.0,55.0,51.0,76,53,40,30.12,29.69,10,2,16,0.04
2012-5-26,78.2,67.7,60.9,60.0,58.1,56.0,89,73,52,30.22,30.05,7,1,11,0.02
2012-5-27,87.1,73.6,63.1,69.0,61.6,57.0,80,67,56,30.06,29.85,9,2,22,0.00
2012-5-28,92.4,82.0,67.8,67.0,63.6,61.0,78,55,39,29.84,29.64,12,2,18,0.02
2012-5-29,79.6,70.9,62.9,65.0,55.5,47.0,92,63,32,29.80,29.68,13,2,22,0.29
2012-5-30,68.9,61.1,51.2,52.0,47.4,39.0,76,62,52,29.94,29.80,10,1,15,0.00
2012-5-31,57.6,51.3,44.9,49.0,42.8,37.0,88,73,61,30.03,29.89,6,0,10,0.15
2012-6-1,52.0,48.7,45.3,50.0,46.2,43.0,93,91,87,29.89,29.68,6,1,12,0.57
2012-6-2,71.3,56.7,46.9,51.0,46.7,43.0,89,72,42,29.71,29.64,11,4,25,0.05
2012-6-3,78.1,70.2,53.1,53.0,50.8,47.0,84,52,39,29.79,29.70,15,3,20,0.00
2012-6-4,77.2,65.6,52.6,53.0,50.5,48.0,85,60,40,29.93,29.78,6,0,11,0.00
2012-6-5,72.1,61.7,51.7,51.0,49.2,47.0,86,65,45,30.04,29.93,7,1,14,0.00
2012-6-6,80.3,65.7,48.8,54.0,49.9,46.0,92,60,34,30.07,30.00,6,0,11,0.00
2012-6-7,81.3,68.7,52.6,56.0,50.8,47.0,91,57,35,30.10,30.03,9,1,16,0.00
2012-6-8,83.4,71.5,50.5,57.0,52.2,46.0,85,54,38,30.05,29.88,10,2,18,0.00
2012-6-9,87.2,76.1,62.9,58.0,54.5,52.0,73,49,33,29.91,29.84,10,2,20,0.00
2012-6-10,91.5,76.8,62.2,63.0,58.8,54.0,75,55,36,29.98,29.88,6,1,13,0.00
2012-6-11,85.2,78.4,69.5,68.0,63.5,58.0,74,61,53,29.89,29.75,7,1,14,0.00
2012-6-12,76.9,69.2,57.8,68.0,51.1,46.0,77,53,41,30.10,29.75,15,2,17,0.00
2012-6-13,74.3,63.5,47.4,46.0,44.0,40.0,80,52,34,30.22,30.11,6,1,10,0.00
2012-6-14,83.5,69.4,53.6,49.0,46.3,44.0,70,46,26,30.20,30.05,8,1,10,0.00
2012-6-15,91.1,76.5,59.0,59.0,53.7,47.0,75,47,31,30.11,30.04,7,0,10,0.00
2012-6-16,90.8,78.2,67.0,70.0,62.4,54.0,86,60,42,30.08,29.84,9,1,13,0.08
2012-6-17,81.4,73.6,66.0,67.0,61.1,55.0,92,67,42,29.88,29.79,14,2,22,0.11
2012-6-18,92.4,75.2,62.8,74.0,64.3,57.0,93,71,48,29.88,29.65,9,2,26,1.14
2012-6-19,93.9,85.2,78.7,72.0,67.7,64.0,63,56,45,29.93,29.77,14,4,22,0.00
2012-6-20,93.0,83.8,74.2,70.0,65.7,62.0,69,55,42,30.00,29.83,10,3,22,0.00
2012-6-21,81.6,74.3,66.8,67.0,63.6,59.0,86,70,57,29.91,29.81,17,3,19,0.05
2012-6-22,82.0,70.1,59.0,62.0,56.6,54.0,92,66,41,29.98,29.91,7,1,16,0.00
2012-6-23,83.6,69.9,55.5,58.0,55.3,52.0,91,63,39,30.04,29.97,5,0,8,0.00
2012-6-24,85.3,74.3,63.4,64.0,60.2,58.0,86,63,42,30.00,29.89,10,1,15,0.00
2012-6-25,77.3,70.7,53.9,58.0,49.1,45.0,79,48,37,30.07,29.94,8,0,13,0.00
2012-6-26,83.1,72.1,51.9,55.0,50.6,46.0,85,49,34,30.08,29.94,4,1,10,0.00
2012-6-27,91.0,75.1,56.2,59.0,54.7,51.0,87,53,29,29.98,29.76,12,2,15,0.00
2012-6-28,95.3,82.5,67.6,75.0,66.3,56.0,72,59,52,29.80,29.68,9,2,15,0.00
2012-6-29,88.2,80.4,68.1,70.0,60.9,55.0,86,54,33,29.85,29.73,8,1,15,0.00
2012-6-30,87.7,78.4,68.3,69.0,64.0,59.0,84,63,45,29.84,29.75,10,2,16,0.00
2012-7-1,90.8,78.3,65.5,69.0,63.2,60.0,88,63,38,29.94,29.83,7,0,11,0.00
2012-7-2,96.9,81.0,63.6,70.0,63.5,59.0,88,59,31,29.99,29.88,5,1,11,0.00
2012-7-3,93.4,84.3,76.4,73.0,71.0,69.0,88,66,47,29.88,29.77,8,2,15,0.14
2012-7-4,97.6,87.7,77.8,76.0,73.4,71.0,81,64,46,29.82,29.77,13,3,15,0.00
2012-7-5,100.3,89.5,76.3,75.0,70.1,66.0,72,54,40,29.89,29.82,9,2,13,0.00
2012-7-6,104.1,89.5,75.1,75.0,71.7,68.0,82,58,37,29.92,29.84,8,1,12,0.00
2012-7-7,97.0,87.1,79.6,76.0,73.1,67.0,76,64,51,29.96,29.84,6,1,12,0.00
2012-7-8,87.1,78.5,69.7,67.0,60.0,54.0,74,55,33,30.05,29.96,4,0,14,0.00
2012-7-9,87.9,76.4,66.0,63.0,59.6,56.0,83,58,39,30.02,29.96,6,1,12,0.00
2012-7-10,83.9,76.1,61.0,58.0,55.8,54.0,83,51,37,30.11,30.02,6,0,9,0.00
2012-7-11,85.3,78.2,67.8,57.0,55.7,55.0,66,47,36,30.15,30.07,3,0,7,0.00
2012-7-12,90.8,80.2,60.4,58.0,55.0,53.0,79,44,30,30.12,30.03,5,1,10,0.00
2012-7-13,92.4,77.3,66.0,66.0,60.4,54.0,72,57,34,30.07,29.99,3,0,12,0.01
2012-7-14,93.7,84.5,71.5,70.0,66.9,63.0,75,56,41,30.05,29.93,6,2,15,0.00
2012-7-15,89.1,81.6,71.0,71.0,67.6,65.0,85,64,50,29.99,29.92,11,2,16,0.00
2012-7-16,94.6,81.7,69.0,71.0,67.0,65.0,90,64,43,29.98,29.78,7,2,17,0.00
2012-7-17,97.5,87.0,78.1,73.0,69.0,63.0,77,56,41,29.81,29.74,11,3,22,0.00
2012-7-18,90.3,79.0,73.9,72.0,68.8,63.0,84,72,53,29.95,29.79,7,1,11,0.05
2012-7-19,78.3,70.5,64.8,71.0,67.2,62.0,93,89,74,29.97,29.86,3,0,11,0.81
2012-7-20,82.6,71.5,61.8,62.0,59.7,57.0,89,69,45,30.08,29.97,6,1,11,0.00
2012-7-21,84.7,74.0,60.2,65.0,61.2,56.0,87,66,48,30.07,29.98,11,2,14,0.00
2012-7-22,90.5,78.7,68.6,72.0,66.4,63.0,87,67,48,30.05,29.98,8,2,15,0.00
2012-7-23,93.6,84.6,72.2,73.0,70.1,67.0,88,63,47,29.98,29.79,12,3,19,0.08
2012-7-24,86.7,80.3,72.4,72.0,62.6,56.0,75,57,37,29.95,29.82,7,0,11,0.00
2012-7-25,93.2,77.2,65.0,76.0,62.7,56.0,78,62,47,29.93,29.52,11,2,17,0.00
2012-7-26,86.2,78.3,71.0,75.0,69.5,65.0,93,75,56,29.73,29.53,9,2,18,0.32
2012-7-27,81.7,70.2,66.7,72.0,66.1,62.0,93,87,68,29.95,29.72,5,0,8,1.09
2012-7-28,84.6,72.7,60.6,63.0,58.7,56.0,90,64,41,30.09,29.95,8,0,11,0.00
2012-7-29,85.1,73.2,58.6,63.0,58.7,52.0,92,64,37,30.10,29.97,5,0,9,0.00
2012-7-30,89.5,77.2,63.4,66.0,62.4,58.0,88,63,43,29.99,29.82,7,1,11,0.00
2012-7-31,85.9,77.3,64.0,70.0,65.6,61.0,93,69,50,29.94,29.82,6,1,12,0.61
2012-8-1,86.6,73.9,59.7,63.0,60.4,57.0,92,65,41,29.95,29.82,7,1,9,0.00
2012-8-2,88.4,77.4,67.2,71.0,66.1,61.0,83,69,52,29.86,29.81,9,1,15,0.00
2012-8-3,93.3,82.6,71.3,74.0,70.3,67.0,90,68,47,29.89,29.85,7,1,9,0.00
2012-8-4,92.2,80.5,70.8,75.0,69.8,67.0,88,72,47,29.91,29.73,5,1,11,0.03
2012-8-5,80.5,74.8,63.2,71.0,62.5,54.0,89,67,47,30.12,29.79,12,3,19,0.01
2012-8-6,83.0,69.2,54.5,61.0,54.9,50.0,92,64,36,30.15,29.99,8,1,14,0.00
2012-8-7,88.1,73.8,60.4,66.0,59.4,53.0,85,63,41,29.99,29.88,10,2,14,0.00
2012-8-8,85.1,76.5,65.7,61.0,57.9,54.0,74,54,41,29.99,29.91,6,1,9,0.00
2012-8-12,73.2,70.4,65.7,59.0,56.7,55.0,77,63,53,29.98,29.97,6,1,11,0.00
2012-8-13,68.5,65.2,62.4,63.0,59.7,57.0,92,82,68,29.98,29.93,3,0,5,0.05
2012-8-14,80.0,70.0,60.0,63.0,60.6,58.0,93,74,52,29.95,29.87,5,1,10,0.00
2012-8-15,83.6,72.8,59.0,65.0,60.3,57.0,93,68,44,29.94,29.88,5,0,12,0.00
2012-8-16,77.1,69.7,65.2,67.0,63.0,60.0,92,79,68,29.90,29.71,7,2,16,0.33
2012-8-17,72.1,67.1,55.0,57.0,51.9,49.0,80,59,51,30.00,29.92,10,2,16,0.00
2012-8-18,74.2,62.0,48.1,55.0,50.9,45.0,93,70,46,30.04,29.94,6,1,10,0.00
2012-8-19,76.8,63.4,52.2,60.0,54.1,49.0,92,74,43,29.96,29.89,10,1,14,0.06
2012-8-20,75.8,65.8,53.0,57.0,52.7,49.0,92,66,42,29.98,29.92,3,0,9,0.00
2012-8-21,78.7,65.8,51.3,58.0,53.3,49.0,92,67,43,30.08,29.98,4,1,10,0.00
2012-8-22,82.4,67.3,52.4,58.0,53.9,50.0,92,66,40,30.13,30.04,6,1,12,0.00
2012-8-23,87.8,72.9,56.9,62.0,58.2,54.0,90,63,38,30.11,30.02,8,1,13,0.00
2012-8-24,90.4,77.2,63.7,64.0,61.1,58.0,81,60,38,30.06,29.98,7,1,10,0.00
2012-8-25,92.7,78.5,63.8,66.0,62.1,59.0,85,60,37,30.05,29.99,6,1,15,0.00
2012-8-26,90.1,76.2,67.4,70.0,65.3,60.0,91,71,46,30.04,29.96,9,1,17,0.08
2012-8-27,87.5,76.4,69.0,71.0,64.5,55.0,94,70,40,30.03,29.95,8,1,15,0.19
2012-8-28,81.8,70.8,59.0,60.0,56.6,54.0,88,63,44,30.13,30.01,4,0,12,0.00
2012-8-29,83.0,70.6,56.7,60.0,57.1,53.0,91,65,43,30.11,30.00,4,0,8,0.00
2012-8-30,87.0,71.7,57.2,62.0,58.2,54.0,90,66,38,30.06,29.92,12,1,18,0.00
2012-8-31,88.3,79.1,70.6,69.0,63.6,58.0,70,59,48,30.04,29.94,10,3,17,0.00
2012-9-1,82.8,73.4,66.1,63.0,56.9,51.0,76,57,46,30.10,30.01,5,1,10,0.00
2012-9-2,85.7,74.6,66.1,67.0,62.3,58.0,82,67,51,30.02,29.90,10,2,13,0.00
2012-9-3,89.9,77.0,63.3,71.0,65.4,58.0,84,69,52,29.95,29.83,8,1,10,0.00
2012-9-4,87.0,76.3,69.5,72.0,68.9,65.0,94,79,56,29.88,29.81,4,0,8,1.66
2012-9-5,84.4,75.3,69.4,71.0,66.6,61.0,94,76,47,29.85,29.73,9,1,13,0.10
2012-9-6,84.6,73.4,65.1,65.0,62.5,58.0,91,71,46,29.90,29.79,10,1,13,0.00
2012-9-7,77.1,65.1,58.3,62.0,58.3,54.0,90,79,55,29.90,29.70,3,0,10,0.06
2012-9-8,70.2,60.9,53.5,55.0,51.6,48.0,92,74,47,29.84,29.73,10,2,18,0.01
2012-9-9,73.6,62.6,52.3,54.0,49.9,46.0,91,66,39,30.11,29.84,3,0,9,0.00
2012-9-10,75.1,61.2,46.8,54.0,49.4,44.0,92,68,46,30.23,30.11,5,0,10,0.00
2012-9-11,81.9,67.3,52.6,59.0,53.3,48.0,86,63,42,30.16,30.06,10,1,17,0.00
2012-9-12,84.4,72.9,62.6,61.0,57.4,53.0,75,60,42,30.16,30.08,8,2,15,0.00
2012-9-13,75.7,66.7,55.0,63.0,56.9,52.0,88,71,58,30.29,30.11,6,1,11,0.14
2012-9-14,72.7,60.3,48.5,55.0,48.6,43.0,92,69,41,30.31,30.25,9,1,17,0.07
2012-9-15,75.6,59.9,45.2,48.0,45.2,42.0,91,63,34,30.34,30.13,5,0,10,0.00
2012-9-16,77.2,62.9,49.8,58.0,49.9,45.0,86,65,40,30.13,29.98,6,1,10,0.00
2012-9-17,76.9,65.0,54.1,61.0,54.5,49.0,88,70,51,29.98,29.68,11,2,17,0.04
2012-9-18,61.9,54.8,46.4,59.0,45.2,35.0,89,72,42,29.97,29.68,9,1,17,0.02
2012-9-19,67.9,54.5,39.7,44.0,40.1,37.0,91,62,40,30.08,29.85,7,1,17,0.00
2012-9-20,66.6,60.3,53.1,52.0,46.0,41.0,82,61,40,29.88,29.80,14,2,22,0.08
2012-9-21,65.8,53.2,46.7,52.0,46.8,41.0,92,80,45,29.89,29.77,10,1,16,0.20
2012-9-22,59.6,52.0,46.3,49.0,44.8,41.0,92,78,54,30.09,29.73,13,1,13,0.10
2012-9-23,55.3,48.6,41.8,44.0,39.9,36.0,91,74,48,30.22,30.09,6,1,13,0.02
2012-9-24,63.5,51.4,39.1,43.0,38.7,36.0,90,65,41,30.21,29.87,17,3,23,0.01
2012-9-25,73.4,60.5,48.4,55.0,48.4,39.0,86,66,49,29.90,29.81,10,1,14,0.00
2012-9-26,71.0,60.8,51.8,54.0,49.0,44.0,88,67,42,30.13,29.86,4,1,10,0.00
2012-9-27,67.1,56.8,49.7,49.0,45.9,43.0,79,68,50,30.24,30.14,8,1,12,0.00
2012-9-28,70.4,59.0,49.7,50.0,45.8,40.0,86,64,35,30.18,30.08,5,0,10,0.00
2012-9-29,75.0,57.4,43.7,51.0,44.8,41.0,90,67,36,30.11,29.93,5,0,12,0.00
2012-9-30,66.7,55.8,47.3,47.0,44.6,41.0,91,69,43,29.99,29.92,8,1,15,0.00
2012-10-1,66.3,53.6,41.1,48.0,43.6,39.0,92,72,45,29.95,29.84,5,0,7,0.00
2012-10-2,72.1,60.3,47.3,50.0,46.8,44.0,87,64,40,29.92,29.83,6,0,9,0.00
2012-10-3,61.3,59.1,55.9,59.0,54.0,49.0,93,83,65,30.01,29.90,4,0,7,0.15
2012-10-4,76.8,64.4,57.6,59.0,56.2,50.0,94,77,42,30.04,29.93,12,3,18,0.61
2012-10-5,57.6,51.2,46.7,50.0,40.3,34.0,78,67,56,30.06,29.96,14,3,16,0.01
2012-10-6,47.4,45.1,42.1,37.0,34.2,31.0,81,66,58,30.14,29.94,5,1,12,0.00
2012-10-7,48.6,42.9,35.3,38.0,35.1,30.0,87,75,55,30.15,30.10,7,1,11,0.02
2012-10-8,56.2,44.0,32.6,32.0,30.1,28.0,87,62,37,30.17,30.05,11,2,18,0.00
2012-10-9,63.2,53.0,44.6,43.0,36.8,30.0,86,55,44,30.05,29.77,10,2,22,0.01
2012-10-10,45.5,42.2,36.0,43.0,34.0,27.0,91,74,51,30.16,29.83,9,1,19,0.39
2012-10-11,59.8,44.4,34.3,42.0,36.6,31.0,89,76,49,30.21,30.02,14,2,28,0.01
2012-10-12,50.8,41.5,31.2,39.0,30.1,25.0,91,67,37,30.48,30.23,3,0,8,0.07
2012-10-13,63.1,45.3,35.7,61.0,41.0,27.0,94,85,68,30.36,29.83,8,1,14,0.36
2012-10-14,70.2,62.3,49.7,63.0,59.4,47.0,94,90,68,29.82,29.39,18,3,29,0.45
2012-10-15,49.5,46.7,40.2,47.0,41.3,35.0,90,81,73,29.98,29.58,8,2,15,0.43
2012-10-16,61.8,46.7,33.1,47.0,38.8,31.0,92,75,52,29.98,29.64,7,0,13,0.19
2012-10-17,72.0,61.8,56.5,55.0,51.1,45.0,89,69,49,29.64,29.40,8,2,20,0.20
2012-10-18,59.4,52.2,45.0,55.0,46.0,38.0,92,80,55,29.59,29.25,16,3,24,0.13
2012-10-19,51.0,46.4,43.8,45.0,42.4,40.0,92,86,75,29.58,29.50,4,1,10,0.08
2012-10-20,54.4,47.3,40.8,46.0,42.8,38.0,93,84,69,29.91,29.57,7,1,11,0.06
2012-10-21,62.5,47.9,37.0,46.0,40.6,35.0,93,78,49,30.09,29.91,6,1,10,0.05
2012-10-22,70.9,57.2,45.9,59.0,51.5,42.0,94,82,65,30.05,29.90,3,0,8,0.03
2012-10-23,64.7,61.1,59.0,60.0,58.9,57.0,95,92,84,29.96,29.87,3,0,7,0.04
2012-10-24,76.9,66.5,57.9,65.0,60.8,56.0,95,82,66,29.97,29.88,8,0,10,0.01
2012-10-25,78.2,69.1,50.6,61.0,58.7,47.0,88,70,55,29.89,29.70,13,3,20,0.01
2012-10-26,50.7,44.7,39.3,46.0,34.7,30.0,91,69,51,30.30,29.89,8,1,15,0.00
2012-10-27,51.8,40.8,31.3,33.0,31.0,29.0,90,70,47,30.31,30.21,5,0,11,0.02
2012-10-28,49.0,40.8,33.5,31.0,28.2,24.0,79,62,42,30.30,30.21,5,1,10,0.00
2012-10-29,47.6,40.2,33.6,29.0,26.5,24.0,75,60,42,30.24,29.95,8,1,14,0.03
2012-10-30,41.1,39.5,38.0,36.0,32.1,25.0,87,75,53,29.93,29.64,12,2,16,0.03
2012-10-31,42.4,39.7,38.2,37.0,35.3,33.0,87,84,79,29.76,29.65,6,1,13,0.01
2012-11-1,47.9,41.8,37.5,36.0,31.5,27.0,82,68,52,29.85,29.75,14,2,17,0.02
2012-11-2,45.0,40.1,34.3,33.0,30.6,28.0,81,69,59,30.14,29.84,6,1,10,0.03
2012-11-3,43.2,36.4,32.1,31.0,29.1,28.0,86,75,60,30.24,30.15,2,0,8,0.01
2012-11-4,42.2,35.7,27.3,30.0,26.0,23.0,82,68,54,30.25,30.19,5,0,7,0.01
2012-11-5,39.4,31.5,23.9,29.0,24.9,20.0,89,77,64,30.26,30.18,3,0,7,1.09
2012-11-6,44.9,36.9,28.4,31.0,28.2,25.0,86,72,57,30.18,29.97,7,1,10,0.17
2012-11-7,48.1,39.3,32.5,30.0,28.6,26.0,79,67,50,30.18,29.98,8,1,11,0.00
2012-11-8,44.8,36.7,26.9,38.0,31.1,24.0,90,81,64,30.24,30.14,4,0,7,0.00
2012-11-9,55.7,47.2,35.3,41.0,37.6,31.0,87,70,57,30.17,30.05,4,1,9,0.00
2012-11-10,65.0,56.4,49.1,52.0,46.3,41.0,81,69,56,30.08,29.89,6,1,18,0.00
2012-11-11,70.8,63.0,56.2,54.0,49.5,46.0,87,62,52,30.00,29.81,13,3,23,0.00
2012-11-12,55.9,38.7,31.4,52.0,32.5,20.0,91,79,62,30.27,29.84,19,5,21,0.06
2012-11-13,38.2,32.0,26.2,24.0,21.2,20.0,81,65,52,30.55,30.27,14,1,14,0.00
2012-11-14,42.7,32.3,24.5,26.0,22.9,20.0,83,70,49,30.60,30.45,4,0,11,0.00
2012-11-15,44.3,33.6,25.9,31.0,25.9,22.0,87,74,54,30.45,30.36,7,0,7,0.00
2012-11-16,53.6,37.9,26.5,40.0,30.9,23.0,90,77,53,30.52,30.39,6,1,9,0.00
2012-11-17,53.7,39.4,28.6,36.0,30.0,26.0,91,72,44,30.60,30.52,7,0,10,0.00
2012-11-18,57.1,43.0,34.3,37.0,31.4,29.0,87,66,37,30.54,30.40,7,1,9,0.00
2012-11-19,55.7,44.3,34.3,37.0,32.9,28.0,80,66,50,30.39,30.16,3,0,6,0.00
2012-11-20,53.5,47.2,40.4,42.0,38.2,33.0,78,71,62,30.16,30.07,5,0,6,0.00
2012-11-21,54.5,46.9,39.3,46.0,41.9,36.0,90,83,73,30.24,30.11,5,1,9,0.00
2012-11-22,61.9,52.0,43.9,48.0,44.3,41.0,91,77,53,30.11,29.71,10,2,23,0.03
2012-11-23,55.9,37.6,30.6,49.0,28.8,21.0,84,71,62,30.09,29.69,18,6,29,0.02
2012-11-24,31.9,30.6,29.5,22.0,20.5,19.0,72,66,61,30.19,30.04,8,2,15,0.00
2012-11-25,37.2,32.1,28.5,28.0,24.2,20.0,79,73,68,30.03,29.85,10,1,16,0.00
2012-11-26,32.9,31.5,29.0,26.0,20.8,17.0,79,65,57,30.35,30.03,4,1,12,0.00
2012-11-27,34.3,28.4,20.5,22.0,18.8,14.0,80,68,58,30.40,30.24,9,1,12,0.00
2012-11-28,39.1,32.4,28.3,28.0,24.5,20.0,86,73,57,30.34,30.22,11,2,16,0.00
2012-11-29,49.3,37.5,29.2,32.0,28.0,24.0,82,70,50,30.29,30.16,12,1,14,0.00
2012-11-30,39.1,37.3,35.5,35.0,32.3,29.0,87,82,69,30.26,30.15,9,2,14,0.00
2012-12-1,58.8,43.3,35.4,52.0,38.5,32.0,91,83,72,30.24,29.91,11,2,17,0.00
2012-12-2,57.2,51.1,37.7,52.0,47.0,35.0,90,86,78,30.09,29.87,12,2,19,0.20
2012-12-3,64.5,52.2,36.8,59.0,49.7,35.0,94,91,76,30.09,29.81,12,2,18,0.00
2012-12-4,64.3,49.1,37.1,57.0,39.6,27.0,88,70,54,30.18,29.82,14,3,29,0.07
2012-12-5,37.4,32.3,29.0,27.0,21.1,18.0,74,64,55,30.45,30.19,5,1,13,0.00
2012-12-6,40.7,35.1,27.8,34.0,26.7,21.0,77,72,63,30.32,29.94,5,1,9,0.00
2012-12-7,45.1,42.3,40.4,40.0,37.0,34.0,90,81,73,29.97,29.89,4,0,7,0.02
2012-12-8,41.2,33.8,28.9,38.0,30.7,26.0,91,88,83,30.20,29.86,4,0,8,0.15
2012-12-9,33.7,31.8,30.1,30.0,28.2,26.0,91,86,81,30.20,29.70,11,2,14,0.08
2012-12-10,35.2,32.6,31.2,31.0,28.5,23.0,92,85,69,29.86,29.64,9,1,13,0.02
2012-12-11,33.9,30.6,24.5,28.0,23.2,20.0,89,74,60,30.11,29.98,10,2,20,0.00
2012-12-12,44.4,35.9,32.0,30.0,26.7,24.0,81,70,48,30.33,30.11,14,2,14,0.00
2012-12-13,47.5,38.1,31.0,27.0,25.4,24.0,75,62,40,30.32,30.11,11,2,18,0.00
2012-12-14,48.8,36.5,28.0,36.0,29.7,25.0,88,77,55,30.25,30.14,3,0,6,0.00
2012-12-15,46.5,38.9,33.1,44.0,34.6,29.0,92,84,72,30.14,29.61,8,2,14,0.25
2012-12-16,47.9,45.6,39.6,46.0,42.8,37.0,93,90,80,29.68,29.58,9,2,17,0.11
2012-12-17,41.3,38.1,31.6,37.0,32.9,28.0,91,81,69,29.73,29.66,5,1,12,0.00
2012-12-18,39.1,33.5,26.7,32.0,28.6,24.0,91,82,69,29.80,29.70,5,1,7,0.00
2012-12-19,39.8,36.1,32.7,35.0,32.4,30.0,92,86,78,30.11,29.76,3,0,7,0.00
2012-12-20,44.2,38.7,33.3,42.0,35.6,31.0,92,88,79,30.01,29.10,17,4,26,0.97
2012-12-21,38.4,33.5,30.9,33.0,27.8,24.0,89,79,69,30.04,29.16,18,4,23,0.04
2012-12-22,35.3,30.2,26.1,24.0,22.6,21.0,81,73,63,30.14,30.00,9,2,16,0.00
2012-12-23,31.6,26.7,20.1,25.0,20.3,17.0,89,77,67,30.08,29.91,5,0,8,0.00
2012-12-24,29.7,25.6,22.0,22.0,19.4,17.0,80,77,73,30.09,29.90,10,1,10,0.00
2012-12-25,30.6,25.2,18.3,21.0,18.0,15.0,88,75,62,30.38,30.09,7,0,9,0.00
2012-12-26,28.2,25.7,21.0,23.0,20.0,16.0,88,79,69,30.32,30.00,10,2,16,0.09
2012-12-27,30.5,24.1,19.4,22.0,19.0,15.0,88,81,66,30.20,30.07,5,0,8,0.00
2012-12-28,30.0,25.8,19.1,25.0,22.0,15.0,89,85,79,30.19,29.96,4,1,10,0.00
2012-12-29,30.8,27.0,22.7,24.0,22.4,18.0,89,83,75,30.12,29.89,3,0,7,0.00
2012-12-30,28.3,26.5,23.4,25.0,21.6,18.0,89,82,76,30.31,30.12,8,2,16,0.02
2012-12-31,36.4,29.8,24.8,29.0,23.5,18.0,83,77,71,30.15,29.95,14,3,22,0.00
2013-1-1,25.8,22.8,20.0,18.0,13.9,11.0,79,69,59,30.20,30.08,8,1,14,0.00